星链-33639 (STARLINK-33639)

导读 | 豆包AI

STARLINK-33639是美国于2025年4月6日发射的Starlink星链卫星,隶属于美国太空探索技术公司SpaceX的星链星座计划。该计划旨在构建全球卫星互联网星座,为全球不同地区提供高速低延迟的宽带互联网服务,尤其填补偏远地区网络覆盖空白。

基本信息
目录编号:
63481
目录名称:
STARLINK-33639
国际标识:
2025-070X
轨道中心:
EARTH
卫星名称:
星链-33639
卫星全名:
星链-33639 (STARLINK-33639)
卫星状态:
在轨 (已飞行342 天)
发射日期:
2025-04-06 UTC
国别 :
美国 (US)
星等 :
--
轨道信息
数据来源 国际轨道数据
星历时间: 2026-03-14T18:47:27+0800
11小时前
查看轨道信息
半长轴: 6861.093km
偏心率: 0.0000382
轨道倾角: 42.994°
近地点辐角 198.820°
升交点赤经 229.491°
平近点角 161.264°
近地点: 482.693km
远地点: 483.219km
周期: 94.265分钟
每日圈数: 15.276114
详细信息
固有亮度:
5
最大亮度:
2.5
卫星平台:
Starlink V1.0
覆盖范围:
全球
运营商:
太空探索技术公司
运营商所在国:
美国
制造商(研发单位):
太空探索技术公司
制造商所在国:
美国
使用方式:
暂无
卫星简介
Starlink 计划是 SpaceX 推出的全球卫星互联网项目,通过发射低轨道卫星,为全球尤其是偏远地区提供高速、低延迟的互联网服务。自 2019 年起,Starlink 已部署数千颗卫星,旨在缩小全球数字鸿沟,推动互联网普及。该项目还为军事、航空等行业提供通信支持,带来广泛经济效益。
2D轨道图
3D轨道图
轨道高度分析图
轨道倾角分析图
轨道综合分析图
查看轨道综合分析图